(267183) = 2000 QP62

Discovered at Socorro on 2000-08-28 by LINEAR.

Orbit

Orbit type: Main Belt

Note: WebGL enabled browser required.

epoch2024-03-31.0
epoch JD2460400.5
perihelion date2024-12-30.92442
perihelion JD2460675.42442
argument of perihelion (°)187.95531
ascending node (°)133.75367
inclination (°)8.84947
eccentricity0.2324723
perihelion distance (AU)1.9609022
Tisserand w.r.t. Jupiter3.4
ΔV w.r.t. Earth (km/sec)9.2
semimajor axis (AU)2.5548291
mean anomaly (°)293.64489
mean daily motion (°/day)0.24135760
aphelion distance (AU)3.149
period (years)4.08
P-vector [x]0.78368350
P-vector [y]-0.56109934
P-vector [z]-0.26647271
Q-vector [x]0.61114017
Q-vector [y]0.77323176
Q-vector [z]0.16917544
absolute magnitude16.42
phase slope0.15
uncertainty0
referenceMPEC 2024-C145
observations used409
oppositions14
arc length (days)8568
first opposition used2000
last opposition used2024
residual rms (arc-secs)0.76
perturbers coarse indicatorM-v
perturbers precise indicator003Ek
first observation date used2000-08-28.0
last observation date used2024-02-12.0
computer nameMPCLINUX
JD of orbit computation2456731.477479
perihelion JD uncertainty (days)6.1776E-05
argument of perihelion uncertainty (°)3.4682E-05
ascending node uncertainty (°)2.9387E-05
inclination uncertainty (°)1.0248E-05
eccentricity uncertainty 1.5007E-07
perihelion distance uncertainty (AU)3.9796E-07
Minimum Orbit Intersection Distances (in AU)
for orbit epoch: 2460400.5, reference: E2024-G88
Mercury1.54403
Venus1.23335
Earth0.94836
Mars0.57512
Jupiter2.17122
Saturn6.0158
Uranus15.3241
Neptune27.1056

Observations

425 total observations over interval: 2000 08 28.31147 – 2024 02 12.657237
These data are available for download (format description).

Date (UT) J2000 RA J2000 Dec Magn Location Ref
2000 08 28.31147 23 53 42.69 -10 23 22.1 18.2   704 – Lincoln Laboratory ETS, New Mexico MPS 18156
2000 08 28.33854 23 53 41.78 -10 23 40.8 18.9   704 – Lincoln Laboratory ETS, New Mexico MPS 18156
2000 08 28.35213 23 53 41.34 -10 23 50.0 18.7   704 – Lincoln Laboratory ETS, New Mexico MPS 18156
2000 08 29.34390 23 53 12.18 -10 34 44.8 18.9   704 – Lincoln Laboratory ETS, New Mexico MPS 18156
2000 08 29.35731 23 53 11.71 -10 34 54.6 18.4   704 – Lincoln Laboratory ETS, New Mexico MPS 18156
2000 08 29.37076 23 53 11.27 -10 35 04.0 19.0   704 – Lincoln Laboratory ETS, New Mexico MPS 18156
2000 08 29.38424 23 53 10.81 -10 35 11.6 18.4   704 – Lincoln Laboratory ETS, New Mexico MPS 18156
2000 09 21.35307 23 38 16.92 -14 26 56.5 18.2 R 699 – Lowell Observatory-LONEOS MPS 30055
2000 09 21.37285 23 38 16.08 -14 27 06.3   699 – Lowell Observatory-LONEOS MPS 30055
2000 09 21.39264 23 38 15.21 -14 27 15.6   699 – Lowell Observatory-LONEOS MPS 30055
2000 09 21.41247 23 38 14.38 -14 27 24.9   699 – Lowell Observatory-LONEOS MPS 30055
2000 09 26.31153 23 35 02.67 -15 03 18.3 18.8   608 – Haleakala-AMOS MPS 20984
2000 09 26.32206 23 35 02.26 -15 03 22.5 18.8   608 – Haleakala-AMOS MPS 20984
2000 09 26.33302 23 35 01.82 -15 03 26.9 18.8   608 – Haleakala-AMOS MPS 20984
2000 10 01.17471 23 32 12.04 -15 31 53.7 18.3   704 – Lincoln Laboratory ETS, New Mexico MPS 20984
2000 10 01.18983 23 32 11.55 -15 31 58.7 18.9   704 – Lincoln Laboratory ETS, New Mexico MPS 20984
2000 10 01.20456 23 32 10.97 -15 32 02.8 18.5   704 – Lincoln Laboratory ETS, New Mexico MPS 20984
2000 10 01.22053 23 32 10.43 -15 32 08.1 18.4   704 – Lincoln Laboratory ETS, New Mexico MPS 20984
2000 10 01.23618 23 32 09.84 -15 32 13.8 18.8   704 – Lincoln Laboratory ETS, New Mexico MPS 20984
2000 10 02.19461 23 31 39.54 -15 36 57.0 17.9 R 699 – Lowell Observatory-LONEOS MPS 20984
2000 10 02.21405 23 31 38.86 -15 37 02.2   699 – Lowell Observatory-LONEOS MPS 20984
2000 10 02.23344 23 31 38.20 -15 37 08.7   699 – Lowell Observatory-LONEOS MPS 20984
2000 10 02.25280 23 31 37.52 -15 37 13.5   699 – Lowell Observatory-LONEOS MPS 20984
2003 03 27.19671 12 17 01.26 +09 04 33.5 21.4   644 – Palomar Mountain/NEAT MPS 111775
2003 03 27.26069 12 16 57.88 +09 05 00.6 21.5   644 – Palomar Mountain/NEAT MPS 111775
2003 03 27.32907 12 16 54.30 +09 05 30.2 21.6   644 – Palomar Mountain/NEAT MPS 111775
2004 07 15.35095 22 30 36.35 -09 45 48.2 19.3   704 – Lincoln Laboratory ETS, New Mexico MPS 111775
2004 07 15.36158 22 30 36.38 -09 45 53.0 19.8   704 – Lincoln Laboratory ETS, New Mexico MPS 111775
2004 07 15.37216 22 30 36.52 -09 45 55.8 19.3   704 – Lincoln Laboratory ETS, New Mexico MPS 111775
2004 07 15.38272 22 30 36.57 -09 45 59.9 19.5   704 – Lincoln Laboratory ETS, New Mexico MPS 111775
2004 08 07.31028 22 27 34.56 -13 07 01.0 18.2   644 – Palomar Mountain/NEAT MPS 110960
2004 08 07.33362 22 27 33.87 -13 07 16.4 18.3   644 – Palomar Mountain/NEAT MPS 110960
2004 08 07.35992 22 27 33.10 -13 07 34.0 18.4   644 – Palomar Mountain/NEAT MPS 110960
2004 08 08.29367 22 27 07.84 -13 17 50.5 18.6   704 – Lincoln Laboratory ETS, New Mexico MPS 110960
2004 08 08.31233 22 27 07.26 -13 18 03.2 19.1   704 – Lincoln Laboratory ETS, New Mexico MPS 110960
2004 08 08.32179 22 27 06.94 -13 18 09.8 19.2   704 – Lincoln Laboratory ETS, New Mexico MPS 110960
2004 08 08.33119 22 27 06.68 -13 18 15.7 18.9   704 – Lincoln Laboratory ETS, New Mexico MPS 110960
2004 08 10.22525 22 26 12.07 -13 39 25.6 18.6   704 – Lincoln Laboratory ETS, New Mexico MPS 110960
2004 08 10.23595 22 26 11.70 -13 39 33.3 19.1   704 – Lincoln Laboratory ETS, New Mexico MPS 110960
2004 08 10.25091 22 26 11.22 -13 39 43.1 19.0   704 – Lincoln Laboratory ETS, New Mexico MPS 110960
2004 08 10.26162 22 26 10.84 -13 39 50.4 19.0   704 – Lincoln Laboratory ETS, New Mexico MPS 110960
2004 08 10.27230 22 26 10.45 -13 39 57.5 19.5   704 – Lincoln Laboratory ETS, New Mexico MPS 110960
2004 08 12.24273 22 25 08.73 -14 02 18.9 19.3   704 – Lincoln Laboratory ETS, New Mexico MPS 110960
2004 08 12.25267 22 25 08.43 -14 02 25.5 18.8   704 – Lincoln Laboratory ETS, New Mexico MPS 110960
2004 08 12.26243 22 25 08.11 -14 02 32.7 18.9   704 – Lincoln Laboratory ETS, New Mexico MPS 110960
2004 08 12.27221 22 25 07.72 -14 02 39.6 18.5   704 – Lincoln Laboratory ETS, New Mexico MPS 110960
2004 08 12.28204 22 25 07.34 -14 02 46.5 18.5   704 – Lincoln Laboratory ETS, New Mexico MPS 110960
2004 08 23.26399 22 18 25.08 -16 08 28.5 17.3 R 699 – Lowell Observatory-LONEOS MPS 112087
2004 08 23.27858 22 18 24.47 -16 08 38.0   699 – Lowell Observatory-LONEOS MPS 112087
2004 08 23.29318 22 18 23.86 -16 08 47.8   699 – Lowell Observatory-LONEOS MPS 112087
2004 08 23.30775 22 18 23.22 -16 08 57.3   699 – Lowell Observatory-LONEOS MPS 112087
2004 08 27.30714 22 15 46.60 -16 52 43.0 18.4 R 703 – Catalina Sky Survey MPS 112087
2004 08 27.31849 22 15 46.10 -16 52 50.1 18.2 R 703 – Catalina Sky Survey MPS 112087
2004 08 27.32983 22 15 45.71 -16 52 58.7 18.7 R 703 – Catalina Sky Survey MPS 112087
2004 08 27.34117 22 15 45.12 -16 53 03.7 17.8 R 703 – Catalina Sky Survey MPS 112087
2004 09 07.23239 22 09 11.51 -18 37 49.1 18.6   704 – Lincoln Laboratory ETS, New Mexico MPS 112548
2004 09 07.24342 22 09 11.14 -18 37 55.2 18.4   704 – Lincoln Laboratory ETS, New Mexico MPS 112548
2004 09 07.25446 22 09 10.76 -18 37 59.9 18.5   704 – Lincoln Laboratory ETS, New Mexico MPS 112548
2004 09 07.26559 22 09 10.36 -18 38 06.8 18.7   704 – Lincoln Laboratory ETS, New Mexico MPS 112548
2004 09 07.27662 22 09 09.93 -18 38 11.5 18.9   704 – Lincoln Laboratory ETS, New Mexico MPS 112548
2004 09 09.17885 22 08 11.72 -18 53 38.6 18.8   704 – Lincoln Laboratory ETS, New Mexico MPS 112548
2004 09 09.19033 22 08 11.31 -18 53 44.5 19.0   704 – Lincoln Laboratory ETS, New Mexico MPS 112548
2004 09 09.20238 22 08 10.95 -18 53 50.1 19.1   704 – Lincoln Laboratory ETS, New Mexico MPS 112548
2004 09 09.21391 22 08 10.57 -18 53 55.8 18.8   704 – Lincoln Laboratory ETS, New Mexico MPS 112548
2004 09 12.12484 22 06 49.87 -19 15 40.0 18.3   704 – Lincoln Laboratory ETS, New Mexico MPS 112591
2004 09 12.13606 22 06 49.51 -19 15 45.2 19.0   704 – Lincoln Laboratory ETS, New Mexico MPS 112591
2004 09 12.14727 22 06 49.23 -19 15 49.6 19.1   704 – Lincoln Laboratory ETS, New Mexico MPS 112591
2004 09 12.15854 22 06 48.90 -19 15 54.4 19.0   704 – Lincoln Laboratory ETS, New Mexico MPS 112591
2004 09 12.16978 22 06 48.48 -19 16 00.2 18.9   704 – Lincoln Laboratory ETS, New Mexico MPS 112591
2004 09 16.56409 22 05 08.96 -19 44 02.9 18.4 R E12 – Siding Spring Survey MPS 112591
2004 09 16.57259 22 05 08.78 -19 44 06.4 18.9 R E12 – Siding Spring Survey MPS 112591
2004 09 16.58117 22 05 08.59 -19 44 09.4 17.6 R E12 – Siding Spring Survey MPS 112591
2004 09 16.58975 22 05 08.39 -19 44 11.8 18.4 R E12 – Siding Spring Survey MPS 112591
2004 09 17.17242 22 04 57.96 -19 47 37.3 18.6   704 – Lincoln Laboratory ETS, New Mexico MPS 114122
2004 09 17.18440 22 04 57.66 -19 47 42.0 19.3   704 – Lincoln Laboratory ETS, New Mexico MPS 114122
2004 09 17.19633 22 04 57.43 -19 47 46.7 18.6   704 – Lincoln Laboratory ETS, New Mexico MPS 114122
2004 09 21.16881 22 03 58.67 -20 07 35.1 19.4   704 – Lincoln Laboratory ETS, New Mexico MPS 114122
2004 09 21.18062 22 03 58.52 -20 07 39.1 19.6   704 – Lincoln Laboratory ETS, New Mexico MPS 114122
2004 09 21.19242 22 03 58.26 -20 07 42.3 20.1   704 – Lincoln Laboratory ETS, New Mexico MPS 114122
2004 09 21.20421 22 03 58.16 -20 07 44.9 19.4   704 – Lincoln Laboratory ETS, New Mexico MPS 114122
2004 09 21.21608 22 03 57.97 -20 07 48.4 19.7   704 – Lincoln Laboratory ETS, New Mexico MPS 114122
2008 05 31.44162 20 55 48.61 -11 01 38.5 19.4 V G96 – Mt. Lemmon Survey MPS 250913
2008 05 31.44816 20 55 48.90 -11 01 37.7 19.4 V G96 – Mt. Lemmon Survey MPS 250913
2008 05 31.45473 20 55 49.22 -11 01 36.7 19.5 V G96 – Mt. Lemmon Survey MPS 250913
2008 05 31.46129 20 55 49.51 -11 01 36.5 19.5 V G96 – Mt. Lemmon Survey MPS 250913
2008 07 01.32872 21 08 09.63 -11 52 10.5 19.4   704 – Lincoln Laboratory ETS, New Mexico MPS 252010
2008 07 01.32953 21 08 09.59 -11 52 10.8 19.0 C 704 – Lincoln Laboratory ETS, New Mexico MPS 287347
